Regional Weather Roundup
Issued by NWS Charleston, SC

Home | Current Version | Previous Version | Text Only | Print | Product List | Glossary On
Versions: 1 2 3 4 5 6 7 8 9 10 11 12 13 14 15 16 17 18 19 20 21 22 23 24 25 26 27 28 29 30 31 32 33 34 35 36 37 38 39 40 41 42 43 44 45 46 47 48 49 50
000
ASUS42 KCHS 130313
RWRCHS

REGIONAL WEATHER ROUNDUP
NATIONAL WEATHER SERVICE CHARLESTON SC
1000 PM EST FRI FEB 12 2016

NOTE: "FAIR" INDICATES FEW OR NO CLOUDS BELOW 12,000 FEET WITH NO
SIGNIFICANT WEATHER AND/OR OBSTRUCTIONS TO VISIBILITY.

NOT ALL STATIONS ARE QUALITY CONTROLLED BY THE NATIONAL
WEATHER SERVICE. USE DATA WITH CAUTION...ESPECIALLY
DEWPOINT OBSERVATIONS.

SCZ027-030-031-034>040-042>050-130400-
...SOUTHEAST SOUTH CAROLINA...

CITY           SKY/WX    TMP DP  RH WIND       PRES   REMARKS
N CHARLESTON   PTCLDY    43  36  76 CALM      30.05S
WATERFRONT PRK   N/A     46  43  89 VRB2      29.90S
MOUNT PLEASANT FAIR      43  41  93 CALM      30.05S
JOHNS ISLAND   FAIR      45  43  93 CALM      30.05F FOG
PINOPOLIS        N/A     43  36  75 CALM      29.96F
MONCKS CORNER  MOCLDY    36  32  87 CALM      30.05S
SUMMERVILLE    MOCLDY    41  37  87 CALM      30.06S
BEAUFORT MCAS  PTCLDY    45  44  97 CALM      30.06R FOG
BEAUFORT ARPT  FAIR      46  46 100 CALM      30.05S FOG
HILTON HEAD IS CLEAR     48  48 100 CALM      30.06S
WALTERBORO     PTCLDY    43  41  93 CALM      30.06S
ALLENDALE      FAIR      45  45 100 CALM      30.05S FOG

...SOUTHERN MIDLANDS AND PEE DEE...

CITY           SKY/WX    TMP DP  RH WIND       PRES   REMARKS
GEORGETOWN     FAIR      34  32  93 CALM      30.05F
KINGSTREE      FAIR      32  30  93 CALM      30.05S
ORANGEBURG     CLEAR     39  34  82 CALM      30.05R
BARNWELL       FAIR      41  39  93 CALM      30.06R
AIKEN          FAIR      36  32  87 W5        30.09R WCI  32
MANNING        FAIR      32  30  93 CALM      30.05R
COLUMBIA       CLEAR     35  29  78 W6        30.06R WCI  30
SUMTER         CLEAR     31  27  83 N3        30.03R
FLORENCE       CLEAR     31  27  85 CALM      30.05S
MYRTLE BEACH   CLEAR     36  25  64 N6        30.07F WCI  31
N MYRTLE BEACH CLEAR     33  29  85 CALM      30.06F

$$

GAZ063-065-086>088-099>101-113>116-118-119-134>141-150-130400-
...SOUTHEAST GEORGIA...

CITY           SKY/WX    TMP DP  RH WIND       PRES   REMARKS
SAVANNAH ARPT  CLEAR     54  47  77 W8        30.06R
HUNTER AAF     CLEAR     55  49  82 W9        30.03S
FORT STEWART   CLEAR     55  48  77 CALM      30.05R
STATESBORO     CLEAR     50  49  96 CALM      30.07R
SYLVANIA       CLEAR     46  46 100 CALM      30.08R
CLAXTON        FAIR      59  49  70 SW5       30.07R

...CSRA...CENTRAL AND FAR SOUTHEAST GEORGIA...

CITY           SKY/WX    TMP DP  RH WIND       PRES   REMARKS
THOMSON        CLEAR     40  38  93 NW3       30.13R
AUGUSTA-BUSH   CLEAR     40  36  86 NW6       30.07R WCI  36
AUGUSTA-DANIEL CLEAR     52  34  50 NW8       30.08R
SWAINSBORO     FAIR      45  43  93 CALM      30.09R
VIDALIA        CLEAR     59  43  55 W6        30.09R
EASTMAN        FAIR      59  41  52 NW5       30.13R
HAZLEHURST     FAIR      59  48  67 W5        30.09R
ALMA           CLEAR     60  48  64 W8        30.10R
WAYCROSS       CLEAR     63  53  69 W6        30.10S
JESUP          FAIR      61  54  77 W5        30.08S
BAXLEY         FAIR      61  48  63 W6        30.09R
BRUNSWICK      CLEAR     61  50  67 SW6       30.09S
SAINT SIMONS   CLEAR     61  53  75 SW9       30.08S

$$

SCZ027-028-034-036>038-045-046-048>050-GAZ119-141-130400-
...LAKE AND SUPPLEMENTAL COASTAL OBSERVATIONS...

STATION/POSITION TIME  TEMP    WIND        PRES    WAVE   SWELL
                       AIR SEA DIR/SP/G            HT/PER HT/PER/DIR
                 (UTC) (F)     (DEG/KT/KT) (MB)    (FT/S) (FT/S/D)
WINYAH BAY       NOT AVBL
LAKE MURRAY      0200   43      CALM  /  3 1016.9R
ACE BASIN NERRS  0145   48        CALM     1017.0
FORT PULASKI     0200   58 51              1017.7R
SAPELO ISLAND    0200   55     200/  6     1018.0S

$$

ANZ835-935-AMZ111-154-330-350-352-354-370-450-454-472-130400-
...C-MAN AND BUOY OBSERVATIONS...

STATION/POSITION TIME  TEMP    WIND        PRES    WAVE   SWELL
                       AIR SEA DIR/SP/G            HT/PER HT/PER/DIR
                 (UTC) (F)     (DEG/KT/KT) (MB)    (FT/S) (FT/S/D)
BUOY 41004       0250   54 68  340/  8/ 12 1017.1F   4/ 6   3/ 6
BUOY 41008       0250   59 53  260/  8/ 10 1018.2R   3/ 5   3/170/ 5
FOLLY BEACH CMAN 0300   46     350/  3/  4 1017.7R
CAPERS NEARSHORE 0208   48      30/  8/ 14 1017.1F
FRIPP NEARSHORE  0200   50      70/  2/  4 1017.0S


STATION/POSITION TIME  TEMP    WIND        PRES    WAVE   SWELL
                       AIR SEA DIR/SP/G            HT/PER HT/PER/DIR
                 (UTC) (F)     (DEG/KT/KT) (MB)    (FT/S) (FT/S/D)
5E ST. MARYS GA  0221      56                N/A     2/ 4
FRYING PAN BUOY  0200   44 53  300/ 14/ 16 1017.5R
BUOY 41025       0250   44 71  330/ 16/ 19 1014.8R   5/ 9   2/ 70/ 9
CAPE LOOKOUT NC  NOT AVBL
BUOY 41002       0250   60 68  280/ 25/ 31   N/A    18/ 9
BUOY 41010       0220   72 72              1020.8F
ST AUGUSTINE FL  0300   62 58  240/  9/ 13 1021.4R


$$



USA.gov is the U.S. government's official web portal to all federal, state and local government web resources and services.